INTELSAT 33E DEB, 64395

Orbit data source: Space-Track

INTELSAT 33E DEB, 64395 is space debris in GEO originally from a launch on Wed, 24 Aug 2016 UTC launched from the French Guiana (FRGUI). Debris objects in space refer to the collection of defunct objects orbiting the Earth. Examples of debris include non-operational satellites, rocket bodies, and fragments generated from explosions, collisions, or faulty payload assembly.

Not visible in the next 10 days
Identifier
64395, 2016-053Z
Orbit
GEO
Country
Flag of USUS / ITSO
Related business
Manufacturer
Boeing/ES
Mission
Spacecraft
Bus & Motor
Unknown
Mass
Unknown
Launch date (UTC)
2016-08-24 (10 years ago)
Launch vehicle
Unknown
Launch site
French Guiana (FRGUI)
Object type
Payload
Rocket body
Debris
Shape & HBR
Unknown shape, 1.1 m
Radar Cross Section
RCS unknown

Expand to show TLE details & history
Last TLE update: 2 days ago

TLE from 2 days ago
0 INTELSAT 33E DEB
1 64395U 16053Z   26170.09579762 -.00000128  00000-0  00000-0 0  9995
2 64395   2.3804 111.1751 0028322 305.6478  53.5448  0.99836137  5946
Epoch: 2026-06-19T02:17Z
TLE epoch observation values (Epoch: 2026-06-19T02:17:56.914Z)
Latitude
0.00001°
Longitude
168.82754°
Altitude
35,837.243 km
Speed
3.075 km/s
True Right ascension
07h 22m 34s
True Declination
0° 00' 00"
Sunlit
Object was in daylight at epoch
Visualization orbit readout
Latitude
Unknown
Longitude
Unknown
Altitude
Unknown
Speed
Unknown
Apparent Right ascension
Unknown
Apparent Declination
Unknown
Sunlit
N/A
Visualization observer readout
Local Sidereal Time
08:41:43
Azimuth
Unknown
Elevation
Unknown
Doppler factor
Unknown
Orbital elements
Apogee altitude
36,030.001 km
Perigee altitude
35,790.462 km
Semi-major axis
42,288.369 km
Eccentricity
0.00283
Inclination
2.3804°
RAAN
111.1751°
Arg. of periapsis
305.6478°
True anomaly
53.80639°
Mean anomaly
53.5448°
Eccentric anomaly
53.67554°
Mean motion
0.24958 °/min
Orbital period
1,442.42 mins
BSTAR
0
Loading maneuver chart data...
Computing Atmospheric mass density...
Loading historical data...
Loading historical data...
Loading historical data...
Loading historical data...
Loading historical data...
Loading historical data...
Loading historical data...

Documentation

Showing up to 5 results
|